CW8946 Weather Reports


Display with metric or nautical units.
time (UTC)temp
F
wind
direction
speed
MPH
gust
MPH
rain 1hr
in
rain 24hr
in
rain mn
in
humidity
%
barometer
mb
20260502163643 65 360 3.0 6.0 0.00 0.00 0.00 28 1019.0
20260502162627 64 39 1.0 3.0 0.00 0.00 0.00 28 1019.0
20260502161613 63 40 1.0 4.0 0.00 0.00 0.00 29 1019.0
20260502160646 63 360 1.0 4.0 0.00 0.00 0.00 31 1019.0
20260502151632 59 360 3.0 6.0 0.00 0.00 0.00 35 1019.1
20260502150620 58 360 2.0 4.0 0.00 0.00 0.00 35 1019.0
20260502130613 45 360 0.0 0.0 0.00 0.00 0.00 56 1018.6
20260502123611 44 360 1.0 2.0 0.00 0.00 0.00 58 1018.5
20260502122619 45 360 1.0 2.0 0.00 0.00 0.00 57 1018.4
20260502121624 45 360 0.0 0.0 0.00 0.00 0.00 52 1018.3
20260502120617 45 360 0.0 2.0 0.00 0.00 0.00 53 1018.3
20260502115637 44 360 1.0 3.0 0.00 0.00 0.00 55 1018.3
20260502114621 43 360 0.0 1.0 0.00 0.00 0.00 62 1018.3
20260502113629 42 221 0.0 0.0 0.00 0.00 0.00 64 1018.3
20260502112639 42 222 0.0 2.0 0.00 0.00 0.00 66 1018.4
20260502111631 41 360 0.0 0.0 0.00 0.00 0.00 67 1018.4
20260502110617 41 360 0.0 0.0 0.00 0.00 0.00 66 1018.4
20260502105617 42 360 0.0 0.0 0.00 0.00 0.00 66 1018.5
20260502104648 43 360 0.0 0.0 0.00 0.00 0.00 64 1018.4
20260502103615 43 360 0.0 0.0 0.00 0.00 0.00 64 1018.5
20260502102641 43 360 0.0 1.0 0.00 0.00 0.00 64 1018.5
20260502101628 44 360 0.0 0.0 0.00 0.00 0.00 63 1018.5
20260502100631 44 360 0.0 2.0 0.00 0.00 0.00 64 1018.4
20260502090628 46 360 0.0 2.0 0.00 0.00 0.00 58 1018.4
20260502070624 48 360 1.0 2.0 0.00 0.00 0.00 58 1018.1
20260502065627 48 360 0.0 0.0 0.00 0.00 0.00 60 1018.1
20260502064614 48 360 0.0 2.0 0.00 0.00 0.00 59 1018.1
20260502063641 49 360 0.0 2.0 0.00 0.00 0.00 58 1018.1
20260502062624 49 360 2.0 3.0 0.00 0.00 0.00 60 1018.1
20260502061617 50 360 0.0 2.0 0.00 0.00 0.00 60 1018.1
20260502060627 50 360 1.0 3.0 0.00 0.00 0.00 60 1018.0
20260502055646 50 360 3.0 6.0 0.00 0.00 0.00 60 1018.0
20260502054652 49 181 0.0 1.0 0.00 0.00 0.00 61 1017.9
20260502053619 50 181 1.0 2.0 0.00 0.00 0.00 60 1017.8
20260502052612 52 181 1.0 2.0 0.00 0.00 0.00 59 1017.9
20260502051622 51 181 0.0 1.0 0.00 0.00 0.00 60 1017.8
20260502050648 51 181 0.0 1.0 0.00 0.00 0.00 61 1017.9
20260502045627 51 181 0.0 3.0 0.00 0.00 0.00 63 1017.9
20260502044638 51 181 2.0 4.0 0.00 0.00 0.00 63 1017.8
20260502043626 51 360 0.0 3.0 0.00 0.00 0.00 63 1017.6
20260502042614 51 360 1.0 2.0 0.00 0.00 0.00 62 1017.6
20260502041621 52 360 0.0 2.0 0.00 0.00 0.00 59 1017.6
20260502040647 52 259 1.0 3.0 0.00 0.00 0.00 61 1017.5
20260502035644 52 360 0.0 2.0 0.00 0.00 0.00 59 1017.4
20260502034651 53 360 0.0 0.0 0.00 0.00 0.00 57 1017.3
20260502033636 54 360 0.0 0.0 0.00 0.00 0.00 55 1017.2
20260502032623 55 259 0.0 1.0 0.00 0.00 0.00 52 1017.2
20260502031631 56 360 1.0 2.0 0.00 0.00 0.00 50 1017.0
20260502030624 57 360 1.0 2.0 0.00 0.00 0.00 47 1016.8
20260502025643 58 360 1.0 2.0 0.00 0.00 0.00 44 1016.7
20260502024630 59 360 0.0 2.0 0.00 0.00 0.00 45 1016.6
20260502023617 60 360 1.0 3.0 0.00 0.00 0.00 43 1016.5
20260502022627 61 360 0.0 3.0 0.00 0.00 0.00 42 1016.4
20260502021634 62 360 0.0 4.0 0.00 0.00 0.00 39 1016.4
20260502020632 64 360 1.0 3.0 0.00 0.00 0.00 37 1016.4
20260502015635 64 360 1.0 6.0 0.00 0.00 0.00 36 1016.4
20260502014623 65 360 1.0 4.0 0.00 0.00 0.00 35 1016.3
20260502013636 65 360 3.0 6.0 0.00 0.00 0.00 34 1016.2
20260502012646 66 360 3.0 8.0 0.00 0.00 0.00 35 1016.3
20260502011651 67 360 2.0 6.0 0.00 0.00 0.00 28 1016.2
20260502010630 68 360 4.0 10.0 0.00 0.00 0.00 28 1016.2
20260502005624 69 360 4.0 9.0 0.00 0.00 0.00 26 1016.2
20260502004628 69 360 6.0 10.0 0.00 0.00 0.00 22 1016.3
20260502003614 69 360 3.0 9.0 0.00 0.00 0.00 23 1016.3
20260502002620 69 360 2.0 9.0 0.00 0.00 0.00 22 1016.3
20260502001625 69 294 3.0 8.0 0.00 0.00 0.00 22 1016.3
20260502000618 69 360 5.0 10.0 0.00 0.00 0.00 22 1016.4
20260501235617 68 360 7.0 12.0 0.00 0.00 0.00 21 1016.4
20260501234621 68 360 5.0 13.0 0.00 0.00 0.00 22 1016.4
20260501233630 69 360 7.0 11.0 0.00 0.00 0.00 23 1016.5
20260501232618 68 301 4.0 10.0 0.00 0.00 0.00 24 1016.5
20260501231626 67 360 4.0 15.0 0.00 0.00 0.00 23 1016.6
20260501230631 67 360 8.0 14.0 0.00 0.00 0.00 24 1016.7
20260501225628 66 360 5.0 14.0 0.00 0.00 0.00 25 1016.7
20260501224617 67 328 10.0 15.0 0.00 0.00 0.00 24 1016.9
20260501223627 68 286 5.0 13.0 0.00 0.00 0.00 27 1016.9
20260501222652 67 360 5.0 13.0 0.00 0.00 0.00 26 1017.1
20260501221619 67 360 7.0 14.0 0.00 0.00 0.00 25 1017.2
20260501220627 68 360 5.0 13.0 0.00 0.00 0.00 25 1017.3
20260501215629 67 360 7.0 14.0 0.00 0.00 0.00 24 1017.3
20260501214618 67 360 6.0 14.0 0.00 0.00 0.00 25 1017.5
20260501213648 67 360 7.0 14.0 0.00 0.00 0.00 25 1017.5
20260501212615 67 360 5.0 13.0 0.00 0.00 0.00 26 1017.6
20260501211624 67 360 5.0 12.0 0.00 0.00 0.00 26 1017.7
20260501210649 67 360 5.0 15.0 0.00 0.00 0.00 26 1017.7
20260501205628 66 360 4.0 15.0 0.00 0.00 0.00 25 1017.9
20260501204612 67 310 6.0 13.0 0.00 0.00 0.00 26 1017.8
20260501203621 67 360 10.0 14.0 0.00 0.00 0.00 25 1017.9
20260501202616 67 360 6.0 16.0 0.00 0.00 0.00 25 1017.7
20260501201622 66 360 8.0 15.0 0.00 0.00 0.00 26 1017.7
20260501200618 66 360 5.0 13.0 0.00 0.00 0.00 25 1017.9
20260501195629 66 360 6.0 11.0 0.00 0.00 0.00 22 1017.8
20260501194618 66 360 5.0 10.0 0.00 0.00 0.00 19 1017.9
20260501193625 66 349 5.0 11.0 0.00 0.00 0.00 19 1018.0
20260501192615 65 360 3.0 11.0 0.00 0.00 0.00 20 1018.2
20260501191626 65 78 3.0 8.0 0.00 0.00 0.00 20 1018.2
20260501190625 64 14 3.0 14.0 0.00 0.00 0.00 21 1018.3
20260501185647 64 360 1.0 8.0 0.00 0.00 0.00 19 1018.4
20260501184614 64 85 2.0 13.0 0.00 0.00 0.00 22 1018.6
20260501183619 64 17 2.0 6.0 0.00 0.00 0.00 23 1018.6
20260501182623 64 126 2.0 5.0 0.00 0.00 0.00 22 1018.7
20260501181635 63 334 2.0 4.0 0.00 0.00 0.00 22 1018.7
20260501180627 62 177 3.0 6.0 0.00 0.00 0.00 23 1018.9
20260501175629 63 360 8.0 11.0 0.00 0.00 0.00 25 1019.0
20260501174613 62 360 4.0 6.0 0.00 0.00 0.00 25 1018.9
20260501173623 61 360 5.0 11.0 0.00 0.00 0.00 24 1019.1
20260501172618 61 54 4.0 12.0 0.00 0.00 0.00 25 1019.1